TimePST,TemperatureF,Dew PointF,Humidity,Sea Level PressureIn,VisibilityMPH,Wind Direction,Wind SpeedMPH,Gust SpeedMPH,PrecipitationIn,Events,Conditions,WindDirDegrees,DateUTC
12:00 AM,43.0,37.8,82,29.84,-9999.0,SSW,5.8,-,N/A,,Unknown,210,2013-03-07 08:00:00
1:00 AM,42.6,37.8,83,29.86,-9999.0,SE,4.6,-,N/A,,Unknown,130,2013-03-07 09:00:00
2:00 AM,41.4,37.6,86,29.88,-9999.0,ESE,12.7,-,N/A,,Unknown,120,2013-03-07 10:00:00
3:00 AM,41.5,37.4,85,29.90,-9999.0,SE,5.8,-,N/A,,Unknown,140,2013-03-07 11:00:00
4:00 AM,41,38,83,29.91,,SE,12.7,,,,,130,2013-03-07 12:00:00
4:00 AM,41.2,37.6,87,29.91,-9999.0,SE,12.7,-,N/A,,Unknown,130,2013-03-07 12:00:00
5:00 AM,40.8,36.3,84,29.92,-9999.0,SE,10.4,-,N/A,,Unknown,130,2013-03-07 13:00:00
6:00 AM,40.8,36.3,84,29.94,-9999.0,SE,11.5,-,N/A,,Unknown,130,2013-03-07 14:00:00
7:00 AM,40.5,37.0,88,29.95,-9999.0,SE,10.4,-,N/A,,Unknown,130,2013-03-07 15:00:00
8:00 AM,41.2,36.7,84,29.96,-9999.0,SE,12.7,-,N/A,,Unknown,130,2013-03-07 16:00:00
9:00 AM,41.5,37.0,84,29.98,-9999.0,SSE,12.7,-,N/A,,Unknown,150,2013-03-07 17:00:00
10:00 AM,42,37,75,30.00,,SSE,13.8,,,,,150,2013-03-07 18:00:00
10:00 AM,41.9,36.9,82,30.00,-9999.0,SSE,13.8,-,N/A,,Unknown,150,2013-03-07 18:00:00
11:00 AM,42.4,36.5,79,30.02,-9999.0,SSE,10.4,-,N/A,,Unknown,150,2013-03-07 19:00:00
12:00 PM,44.4,36.7,74,30.04,-9999.0,SE,6.9,-,N/A,,Unknown,130,2013-03-07 20:00:00
1:00 PM,45.3,36.7,72,30.05,-9999.0,ESE,2.3,-,N/A,,Unknown,110,2013-03-07 21:00:00
2:00 PM,45.7,37.0,72,30.05,-9999.0,WSW,3.5,-,N/A,,Unknown,250,2013-03-07 22:00:00
3:00 PM,48.6,38.7,69,30.04,-9999.0,WNW,3.5,-,N/A,,Unknown,290,2013-03-07 23:00:00
4:00 PM,49,38,57,30.05,,WNW,10.4,,,,,300,2013-03-08 00:00:00
4:00 PM,49.3,38.5,66,30.05,-9999.0,WNW,10.4,-,N/A,,Unknown,300,2013-03-08 00:00:00
5:00 PM,45.9,37.4,72,30.06,-9999.0,NW,4.6,-,N/A,,Unknown,310,2013-03-08 01:00:00
6:00 PM,44.8,39.0,80,30.07,-9999.0,NW,8.1,-,N/A,,Unknown,320,2013-03-08 02:00:00
7:00 PM,44.2,39.2,82,30.08,-9999.0,NNW,5.8,-,N/A,,Unknown,330,2013-03-08 03:00:00
8:00 PM,44.2,39.6,84,30.09,-9999.0,NW,8.1,-,N/A,,Unknown,320,2013-03-08 04:00:00
9:00 PM,44.2,39.0,82,30.11,-9999.0,NNW,5.8,-,N/A,,Unknown,340,2013-03-08 05:00:00
10:00 PM,44,38,72,30.10,,NW,1.2,,,,,320,2013-03-08 06:00:00
10:00 PM,43.9,37.9,80,30.10,-9999.0,NW,1.2,-,N/A,,Unknown,320,2013-03-08 06:00:00
11:00 PM,43.2,40.1,89,30.11,-9999.0,West,3.5,-,N/A,,Unknown,270,2013-03-08 07:00:00